This demonstration page uses our WeatherBlox Daily Observations layout. Learn more.

Left ArrowRight Arrow

Hourly Observations for May 22, 2017

Temp ( °F °C ) Dew Point ( °F °C ) Humidity (%) Winds ( mph kmh ) Pressure ( in mb ) Visibility ( mi km ) Precip ( " mm )
12:15 am 00:15 Cloudy with Drizzle 58 14.6 44 6.6 59 59 WNW 13 20 30.09 1019 10 16 N/A
12:35 am 00:35 Cloudy 56 13.5 45 7.2 66 66 WNW 7 11 30.12 1020 10 16 N/A
12:55 am 00:55 Mostly Cloudy 56 13.5 45 7 65 65 N N/A 30.12 1020 10 16 N/A
1:15 am 01:15 Cloudy 56 13.4 45 7.3 67 67 WNW 5 7 30.12 1020 10 16 N/A
1:35 am 01:35 Cloudy 56 13.5 47 8.1 70 70 SW 5 7 30.12 1020 10 16 N/A
1:55 am 01:55 Cloudy 56 13.2 47 8.6 74 74 SW 9 15 30.12 1020 10 16 N/A
2:15 am 02:15 Cloudy 59 15.1 44 6.4 56 56 WSW 9 15 30.06 1018 10 16 N/A
2:35 am 02:35 Mostly Cloudy 58 14.6 45 7 61 61 SW 10 17 30.06 1018 10 16 N/A
2:55 am 02:55 Partly Cloudy 56 13.1 46 8 71 71 WSW 7 11 30.09 1019 10 16 N/A
3:15 am 03:15 Partly Cloudy 55 12.6 46 7.9 73 73 SW 6 9 30.09 1019 10 16 N/A
3:35 am 03:35 Clear 54 12.1 46 7.5 74 74 NW 10 17 30.09 1019 10 16 N/A
3:55 am 03:55 Mostly Cloudy 52 11.2 47 8.1 81 81 W 8 13 30.09 1019 10 16 N/A
4:15 am 04:15 Mostly Cloudy 53 11.5 47 8.2 80 80 W 7 11 30.06 1018 10 16 N/A
4:35 am 04:35 Partly Cloudy 52 11.2 47 8.2 82 82 W 8 13 30.06 1018 10 16 N/A
4:55 am 04:55 Partly Cloudy 53 11.6 47 8.3 80 80 W 12 19 30.06 1018 10 16 N/A
5:15 am 05:15 Partly Cloudy 53 11.8 46 8 78 78 W 10 17 30.06 1018 10 16 N/A
5:35 am 05:35 Clear 54 12 46 8 77 77 W 12 19 30.06 1018 10 16 N/A
5:55 am 05:55 Clear 54 12 46 7.8 76 76 W 10 17 30.06 1018 10 16 N/A
6:15 am 06:15 Sunny 53 11.9 46 7.6 75 75 W 9 15 30.06 1018 10 16 N/A
6:35 am 06:35 Sunny 52 11.1 46 8 81 81 WNW 7 11 30.03 1017 10 16 N/A
6:55 am 06:55 Sunny 52 11 46 8 82 82 W 9 15 30.06 1018 10 16 N/A
7:15 am 07:15 Sunny 52 11 46 7.8 81 81 W 7 11 30.06 1018 10 16 N/A
7:35 am 07:35 Sunny 54 12 47 8.4 79 79 W 8 13 30.06 1018 10 16 N/A
7:55 am 07:55 Sunny 55 12.7 47 8.3 75 75 W 6 9 30.06 1018 10 16 N/A
8:15 am 08:15 Sunny 55 12.9 47 8.4 74 74 WNW 6 9 30.00 1016 10 16 N/A
8:35 am 08:35 Sunny 56 13.5 46 7.8 69 69 NW 10 17 30.00 1016 10 16 N/A
8:55 am 08:55 Sunny 57 14.1 47 8.1 67 67 NW 8 13 30.00 1016 10 16 N/A
9:15 am 09:15 Sunny 58 14.6 46 7.9 64 64 NW 9 15 30.00 1016 10 16 N/A
9:35 am 09:35 Sunny 60 15.6 47 8.4 62 62 NW 8 13 30.00 1016 10 16 N/A
9:55 am 09:55 Sunny 60 15.8 45 7.4 58 58 WNW 8 13 30.00 1016 10 16 N/A
10:15 am 10:15 Sunny 60 15.8 44 6.9 56 56 WNW 6 9 30.00 1016 10 16 N/A
10:35 am 10:35 Sunny 62 16.4 45 7.4 55 55 NW 3 6 29.97 1015 10 16 N/A
10:55 am 10:55 Sunny 64 17.5 44 6.7 49 49 WNW 3 6 29.94 1014 10 16 N/A
11:15 am 11:15 Sunny 65 18.4 43 6.1 45 45 NW 10 17 29.94 1014 10 16 N/A
11:35 am 11:35 Sunny 65 18.4 44 6.6 46 46 NW 7 11 29.94 1014 10 16 N/A
11:55 am 11:55 Sunny 67 19.4 43 6.3 43 43 WNW 9 15 29.94 1014 10 16 N/A
12:15 pm 12:15 Sunny 67 19.4 44 6.5 43 43 NW 8 13 29.94 1014 10 16 N/A
12:35 pm 12:35 Sunny 68 20 42 5.3 38 38 NNW 3 6 29.91 1013 10 16 N/A
12:55 pm 12:55 Sunny 69 20.3 40 4.7 36 36 NW 3 6 29.88 1012 10 16 N/A
1:15 pm 13:15 Sunny 69 20.8 41 4.8 35 35 W 8 13 29.88 1012 10 16 N/A
1:35 pm 13:35 Partly Cloudy 70 21.2 41 5.2 35 35 WNW 10 17 29.88 1012 10 16 N/A
1:55 pm 13:55 Mostly Cloudy 69 20.7 40 4.2 34 34 W 6 9 29.85 1011 10 16 N/A
2:15 pm 14:15 Partly Cloudy 70 21.1 39 4.1 33 33 NW 7 11 29.85 1011 10 16 N/A
2:35 pm 14:35 Mostly Cloudy 71 21.5 41 5.2 35 35 W 9 15 29.85 1011 10 16 N/A
2:55 pm 14:55 Partly Cloudy 72 22.2 41 5 33 33 W 8 13 29.80 1009 10 16 N/A
3:15 pm 15:15 Mostly Cloudy 70 20.9 40 4.5 34 34 WNW 13 20 29.83 1010 10 16 N/A
3:35 pm 15:35 Partly Cloudy 71 21.5 41 4.8 34 34 NNW 18 30 29.83 1010 10 16 N/A
3:55 pm 15:55 Sunny 72 22.1 39 3.8 30 30 NW 10 17 29.83 1010 10 16 N/A
4:15 pm 16:15 Partly Cloudy 71 21.4 38 3.1 30 30 NW 12 19 29.83 1010 10 16 N/A
4:35 pm 16:35 Mostly Cloudy 71 21.5 39 4.1 32 32 NNW 15 24 29.83 1010 10 16 N/A
4:55 pm 16:55 Partly Cloudy 70 21.1 42 5.3 36 36 N 16 26 29.83 1010 10 16 N/A
5:15 pm 17:15 Partly Cloudy 69 20.5 42 5.6 38 38 N 15 24 29.83 1010 10 16 N/A
5:35 pm 17:35 Sunny 68 20.1 44 6.6 42 42 N 14 22 29.83 1010 10 16 N/A
5:55 pm 17:55 Sunny 67 19.7 44 6.8 43 43 N 13 20 29.83 1010 10 16 N/A
6:15 pm 18:15 Sunny 67 19.6 45 7.4 45 45 N 14 22 29.83 1010 10 16 N/A
6:35 pm 18:35 Sunny 67 19.7 44 6.8 43 43 N 14 22 29.83 1010 10 16 N/A
6:55 pm 18:55 Partly Cloudy 66 19.1 45 7 46 46 N 12 19 29.83 1010 10 16 N/A
7:15 pm 19:15 Partly Cloudy 67 19.2 42 5.6 41 41 N 13 20 29.83 1010 10 16 N/A
7:35 pm 19:35 Sunny 65 18.2 43 6.3 46 46 N 9 15 29.85 1011 10 16 N/A
7:55 pm 19:55 Partly Cloudy 64 17.7 43 6.2 47 47 N 9 15 29.88 1012 10 16 N/A
8:15 pm 20:15 Cloudy 62 16.9 45 7.1 53 53 N 5 7 29.88 1012 10 16 N/A
8:35 pm 20:35 Cloudy 61 16 42 5.7 51 51 N 17 28 29.88 1012 10 16 N/A
8:55 pm 20:55 Cloudy 59 15.2 43 6.2 55 55 NNW 12 19 29.94 1014 10 16 N/A
9:15 pm 21:15 Cloudy 58 14.5 44 6.6 59 59 N 13 20 29.94 1014 10 16 N/A
9:35 pm 21:35 Cloudy 57 14.1 43 6 58 58 NNW 9 15 29.97 1015 10 16 N/A
9:55 pm 21:55 Cloudy with Rain 56 13.6 45 7 65 65 NNW 15 24 29.97 1015 10 16 N/A
10:15 pm 22:15 Cloudy with Drizzle 55 12.6 45 7.1 69 69 NNW 20 31 30.03 1017 10 16 N/A
10:35 pm 22:35 Cloudy with Rain 52 11 47 8.5 85 85 NNW 15 24 30.03 1017 7 11 0.01 0.25
10:55 pm 22:55 Cloudy with Rain 51 10.6 48 9 90 90 NNW 15 24 30.06 1018 5 8 0.07 1.78
11:15 pm 23:15 Cloudy with Light Rain 50 9.9 48 8.9 94 94 N 18 30 30.06 1018 7 11 0.03 0.76
11:35 pm 23:35 Cloudy with Drizzle 49 9.7 45 7.4 86 86 N 15 24 30.09 1019 10 16 0.03 0.76
11:55 pm 23:55 Cloudy with Light Rain 49 9.7 45 7 83 83 N 10 17 30.09 1019 10 16 0.03 0.76

Powered by AerisWeather